Location: Glon
(48.2658°N, 11.1059°E)
Time: 10:21:54
(UTC+00:00)

Daily predictions for brighter satellites

Satellite Brightness Start Highest point End
(mag) Time Altitude Azimuth Time Altitude Azimuth Time Altitude Azimuth
ATLAS 3B R/B 3.2 18:29:01 10° S 18:35:36 44° ESE 18:42:38 10° NE
COSMOS 2455 4.2 18:33:37 10° NNW 18:38:38 26° NE 18:43:38 10° E
CSL-04 Rocket 3.9 18:34:34 10° SE 18:39:55 54° ENE 18:45:13 10° N
SJ-6B 3.1 18:36:44 10° S 18:40:41 72° WSW 18:44:41 10° NNW
In-Cosmos 22 Rocket 4.2 18:38:35 10° N 18:44:03 76° ENE 18:49:37 10° SSE
Cosmos 1025 Rocket 3.9 18:40:24 10° NNW 18:44:41 55° W 18:48:57 10° S
PAYLOAD B 4.5 18:39:23 10° SSE 18:44:56 79° WSW 18:50:33 10° NNW
Cosmos 2181 Rocket 4.0 18:39:56 10° S 18:46:07 83° E 18:52:28 10° N
Okean 2 Rocket 4.3 18:43:29 10° SE 18:47:00 23° E 18:50:31 10° NE
Cosmos 1992 Rocket 4.0 18:43:37 10° SSW 18:48:48 74° ESE 18:54:02 10° NNE
MOS 1-B 4.4 18:43:06 10° SSE 18:48:51 74° ENE 18:54:40 10° NNW
CZ-4C R/B 3.9 18:43:23 10° NW 18:49:12 32° NNE 18:56:11 10° E
SPOT 5 4.3 18:47:33 10° ESE 18:51:52 26° ENE 18:56:08 10° N
Cosmos 2297 Rocket 3.3 18:48:50 10° NNW 18:53:46 30° NE 18:58:41 10° ESE
Cosmos 2369 Rocket 3.6 18:52:03 10° SW 18:57:27 44° NW 19:02:51 10° NNE
Cosmos 1503 Rocket 4.4 18:52:44 10° NNW 18:57:57 49° ENE 19:03:08 10° SE
Meteor 1-11 4.3 18:54:50 10° N 19:00:33 87° E 19:06:17 10° S
BlueWalker 3 2.9 18:57:55 10° SSW 19:01:10 27° SE 19:04:28 10° E
Terra 3.5 19:01:32 10° E 19:04:36 18° ENE 19:07:42 10° NNE
ATLAS 5 CENTAUR R/B 1.0 19:02:10 10° SW 19:05:30 84° NW 19:09:15 10° NE
PSLV R/B 3.7 19:04:00 10° SSE 19:07:43 89° ENE 19:11:31 10° NNW
Cosmos 2098 Rocket 3.0 19:03:15 10° S 19:08:02 88° W 19:11:55 10° N
CARTOSAT-1 3.5 19:04:09 10° SSE 19:08:24 79° ENE 19:12:42 10° N
Cosmos 1455 4.2 19:07:14 10° SW 19:10:25 30° WNW 19:13:36 10° N
Sich 1 Rocket 4.1 19:06:21 10° SSE 19:10:25 37° E 19:14:32 10° NNE
Okean 1 Rocket 4.2 19:06:57 10° SE 19:10:30 24° E 19:14:06 10° NE
Okean-O 2.8 19:11:10 10° SSE 19:15:27 54° ENE 19:19:46 10° N
Cosmos 1932 4.5 19:09:35 10° NW 19:15:53 85° NE 19:21:31 13° SE
Cosmos 1975 Rocket 4.1 19:11:43 10° NNW 19:15:54 47° W 19:20:01 10° SSW
CZ-4B R/B 3.9 19:12:03 10° S 19:17:36 59° WSW 19:23:07 10° NNW
Ariane Rocket 4.4 19:16:22 13° ESE 19:19:33 23° ENE 19:23:28 10° N
Cosmos 2263 Rocket 4.3 19:16:50 10° N 19:19:51 14° NNE 19:22:51 10° ENE
CZ-4C R/B 3.4 19:18:18 10° NNE 19:21:32 39° E 19:24:42 10° S
Nadezhda 3 Rocket 3.9 19:16:11 10° S 19:22:18 73° E 19:28:30 10° NNE
Cosmos 1821 Rocket 4.3 19:17:18 10° NNW 19:23:27 71° W 19:29:30 10° S
USA 186 3.4 19:21:28 10° SSW 19:24:14 32° W 19:26:59 10° NNW
SL-27 R/B 3.9 19:21:48 10° NW 19:24:22 28° WSW 19:26:52 10° SSW
Genesis I 3.2 19:20:59 10° NNW 19:24:35 61° NE 19:26:55 20° SE
Cosmos 44 4.3 19:20:33 10° S 19:25:06 28° ESE 19:29:37 10° ENE
USA 267 3.5 19:19:47 10° NE 19:26:20 73° NNW 19:32:51 10° WSW
BREEZE-M R/B 1.6 19:23:46 10° WNW 19:26:21 82° NNE 19:27:39 24° E
Okean O Rocket 2.2 19:26:00 10° S 19:30:17 58° W 19:34:38 10° NNW
Aureole 1 Rocket 4.4 19:32:19 10° NNE 19:33:46 13° NE 19:34:29 12° ENE
CZ-4 R/B 3.8 19:32:37 10° SW 19:35:35 21° W 19:38:32 10° NW
Cosmos 1536 Rocket 3.5 19:37:37 10° N 19:42:04 89° E 19:45:49 14° S
SJ 16-02 4.3 19:41:27 10° WNW 19:43:00 12° W 19:44:33 10° WSW
Resurs 01 Rocket 2.9 19:40:58 10° SSW 19:45:07 40° W 19:49:19 10° NNW
IRS-1C Rocket 4.1 19:42:38 18° SSE 19:46:33 69° ENE 19:51:49 10° N
MOS 1 4.3 19:43:34 13° SSE 19:48:40 90° W 19:54:25 10° NNW
CENTAUR R/B 4.0 19:43:11 10° NW 19:50:30 41° NNE 19:57:39 14° E
Celestis-02/Orion 38 4.5 19:48:37 22° SE 19:51:54 81° ENE 19:57:01 10° NNW
NOSS 3-1 (A) 3.2 19:47:04 10° SW 19:52:04 78° NW 19:58:10 10° NE
ERS-1 Rocket 3.2 19:51:26 25° SE 19:54:10 53° ENE 19:59:02 10° N
SPOT 3 Rocket 4.1 19:55:09 25° ESE 19:57:35 42° ENE 20:02:28 10° N
Tiangong 0.1 19:56:25 10° SW 19:57:18 14° SSW 19:57:18 14° SSW
USA 229 DEB 3.6 19:55:02 10° SSW 20:00:55 53° ESE 20:07:24 10° NE
Cosmos 1934 Rocket 4.0 19:54:47 10° N 20:00:58 83° W 20:06:25 14° S
USA 229 3.6 19:55:08 10° SSW 20:01:01 52° ESE 20:07:29 10° NE
Cosmos 1339 Rocket 4.4 19:56:29 10° S 20:02:37 90° ESE 20:08:45 10° N
Cosmos 2151 Rocket 4.0 19:58:16 10° SSW 20:02:37 62° WNW 20:07:02 10° N
USA 234 4.0 19:58:35 17° SSE 20:03:20 42° SW 20:09:29 10° WNW
USA 281 3.6 19:59:01 13° S 20:04:50 59° WSW 20:11:20 10° NNW
ATLAS CENTAUR R/B 2.5 20:05:29 10° NNW 20:08:50 30° NE 20:09:58 25° ENE
Cosmos 2227 Rocket 2.5 20:04:14 10° NNW 20:09:49 53° ENE 20:12:21 31° ESE
Cosmos 1980 Rocket 3.8 20:13:32 17° E 20:13:32 17° E 20:15:58 10° ENE
Iridium 2 4.1 20:10:22 10° NNW 20:13:11 42° W 20:14:17 28° SW
Cosmos 1892 Rocket 3.6 20:12:46 10° N 20:17:03 60° ENE 20:18:10 44° SE
SL-4 R/B 1.6 20:13:47 10° WNW 20:17:22 74° NNE 20:17:57 57° E
Cosmos 371 Rocket 4.4 20:13:27 10° NW 20:17:54 38° WSW 20:21:07 17° SSW
Landsat 4 3.6 20:17:01 43° S 20:18:01 69° WSW 20:21:33 10° NNW
MetOp-B 4.4 20:15:38 20° S 20:19:19 64° WSW 20:24:41 10° NNW
Cosmos 1697 Rocket 3.0 20:18:57 33° SSE 20:20:39 42° ESE 20:25:58 10° NE
Cosmos 2360 4.2 20:17:18 16° S 20:21:47 57° ESE 20:27:21 10° NE
Okean 2 Rocket 4.4 20:20:31 10° SW 20:24:46 41° WNW 20:29:03 10° N
COSMOS 2455 2.8 20:19:16 10° NW 20:25:20 88° SW 20:27:59 36° SSE
ATLAS 3B R/B 3.6 20:19:10 10° WSW 20:26:15 57° NW 20:33:49 10° NE
SPOT 5 3.6 20:26:04 21° S 20:29:34 55° W 20:34:43 10° NNW
MetOp-A 3.9 20:30:40 40° ENE 20:30:42 40° ENE 20:34:18 10° N
NOSS 8 (H) 4.3 20:28:12 10° NW 20:31:21 87° NE 20:31:30 81° ESE
Cosmos 405 Rocket 2.4 20:33:26 75° ESE 20:33:31 75° E 20:37:15 10° NNE
Cosmos 1898 Rocket 3.9 20:29:39 10° NNW 20:34:46 49° ENE 20:36:04 40° ESE
Cosmos 2297 Rocket 2.6 20:32:37 10° NW 20:38:09 57° WSW 20:40:35 32° S
Spot 2 Rocket 3.4 20:36:25 41° S 20:38:13 84° WSW 20:43:18 10° NNW
CZ-4C R/B 3.0 20:31:34 10° NW 20:38:37 81° NE 20:42:37 35° SE
BlueWalker 3 2.1 20:35:22 10° WSW 20:39:10 71° NNW 20:40:37 36° NE
USA 81 4.2 20:38:46 47° SE 20:39:49 55° E 20:44:58 10° NNE
ARIANE 5 R/B 4.3 20:39:49 21° ENE 20:40:08 21° ENE 20:43:29 10° NNE
Terra 1.9 20:40:08 42° S 20:41:41 71° WSW 20:46:26 10° NNW
Cosmos 1656 4.2 20:38:26 10° SW 20:43:55 59° WNW 20:49:22 10° NNE
Meteor 2-1 Rocket 4.5 20:45:49 44° ESE 20:46:20 45° E 20:51:34 10° NNE
Cosmos 1455 Rocket 3.0 20:46:46 55° SSW 20:47:42 85° W 20:52:07 10° N
Okean 1 Rocket 4.5 20:44:00 10° SW 20:48:08 37° WNW 20:52:19 10° N
Spot 1 4.0 20:43:52 10° NNE 20:48:32 75° ESE 20:49:03 66° SSE
USA 245 4.5 20:46:54 30° SSW 20:49:05 50° W 20:53:23 10° NNW
ATLAS 5 CENTAUR R/B 4.2 20:47:44 10° WNW 20:50:07 16° NNW 20:52:45 10° NNE
Cosmos 332 Rocket 4.4 20:45:48 10° NNW 20:50:30 51° WSW 20:51:53 38° SSW
Cosmos 1459 Rocket 4.2 20:44:45 10° N 20:50:40 52° ENE 20:52:04 44° ESE
Cosmos 2219 3.3 20:47:36 10° NNW 20:53:15 65° ENE 20:54:33 50° ESE
Ariane Rocket 3.4 20:56:30 39° SSW 20:58:07 56° W 21:03:06 10° NNW
Cosmos 1437 Rocket 3.3 20:56:20 10° NNW 21:00:09 51° W 21:00:22 50° WSW
Cosmos 1763 Rocket 3.6 20:57:45 25° SW 21:00:45 71° WNW 21:05:55 10° NNE
Cosmos 2263 Rocket 2.4 20:59:34 10° NNW 21:05:06 55° ENE 21:06:06 48° E
Cosmos 44 4.1 21:00:42 10° SW 21:06:02 59° NW 21:11:17 10° NNE
USA 267 4.3 21:02:45 10° ENE 21:08:53 44° N 21:15:00 10° WNW
ARGOS Delta rocket 4.3 21:08:36 48° SSW 21:09:59 66° W 21:15:27 10° NNW
Cosmos 2082 3.8 21:06:00 10° NNW 21:11:37 60° ENE 21:12:29 53° E
Cosmos 2173 Rocket 3.9 21:09:09 10° N 21:15:34 83° E 21:17:01 57° SSE
NOSS 3-2 (A) 4.2 21:09:27 10° NW 21:16:38 65° NE 21:19:58 38° ESE
Aureole 1 Rocket 4.3 21:14:22 10° NW 21:15:56 24° WNW 21:15:56 24° WNW
Meteor 2-3 Rocket 3.7 21:13:23 10° N 21:19:04 69° ENE 21:19:41 64° ESE
Cosmos 540 Rocket 3.7 21:18:45 40° SW 21:20:29 66° WNW 21:25:36 10° NNE
Cosmos 1606 4.4 21:23:39 26° NNE 21:23:39 26° NNE 21:25:24 10° NNE
MOS 1 Rocket 3.7 21:25:22 49° W 21:25:22 49° W 21:29:36 10° NNW
Cosmos 2058 3.7 21:22:55 10° NNW 21:26:27 43° WNW 21:26:27 43° WNW
Meteor 2-15 4.3 21:22:56 10° N 21:29:06 84° E 21:29:58 67° SSE
Cosmos 1626 Rocket 3.8 21:25:05 10° NNW 21:29:06 67° NW 21:29:06 67° NW
Cosmos 372 Rocket 4.0 21:26:45 10° NNW 21:31:59 73° WSW 21:32:09 72° SW
Meteor 2-15 Rocket 4.4 21:26:15 10° N 21:32:24 68° ENE 21:33:02 63° ESE
Cosmos 1864 Rocket 4.3 21:28:48 10° N 21:35:00 77° E 21:35:41 69° SE
Cosmos 1802 Rocket 3.9 21:31:45 10° N 21:38:03 89° ENE 21:38:59 68° S
SL-16 R/B 4.1 21:41:08 17° ENE 21:41:08 17° ENE 21:43:08 10° NE
CENTAUR R/B 3.2 21:33:49 10° NW 21:42:05 83° SW 21:44:48 51° SSE
Cosmos 841 Rocket 3.4 21:43:35 79° NNE 21:43:35 79° NNE 21:48:25 10° NNE
Cosmos 2016 Rocket 3.8 21:39:12 10° N 21:45:20 86° E 21:45:55 75° SSE
ATLAS CENTAUR R/B 3.1 21:43:08 10° NW 21:45:04 25° WNW 21:45:04 25° WNW
Cosmos 1544 Rocket 4.3 21:49:27 48° NW 21:49:27 48° NW 21:53:13 10° N
Cosmos 1844 Rocket 3.9 21:44:30 10° NNW 21:49:27 31° NE 21:50:30 29° ENE
H-2A R/B 3.8 21:54:16 33° N 21:54:16 33° N 21:56:29 10° N
Cosmos 2100 Rocket 4.5 21:46:47 10° NNW 21:52:56 53° W 21:54:16 45° SW
Cosmos 2227 Rocket 3.5 21:48:46 10° NW 21:53:33 28° WSW 21:54:10 28° WSW
Cosmos 1980 Rocket 2.1 21:55:14 75° WSW 21:55:34 79° WNW 22:01:15 10° NNE
Cosmos 967 Rocket 4.3 21:53:46 10° NW 22:00:16 89° WSW 22:00:44 79° SSE
Cosmos 1937 Rocket 4.2 21:59:01 10° NW 22:03:46 44° W 22:03:46 44° W
Cosmos 1697 Rocket 4.0 22:00:32 16° WSW 22:04:41 38° NW 22:09:58 10° NNE
Cosmos 2123 Rocket 4.1 22:05:46 62° SW 22:06:39 71° W 22:13:01 10° N
Meteor 1-27 4.2 22:10:41 78° NNE 22:10:41 78° NNE 22:15:54 10° NNE
CZ-2C R/B 4.3 22:06:44 10° N 22:10:47 59° NNW 22:10:47 59° NNW
Cosmos 2228 4.4 22:14:50 35° NW 22:14:50 35° NW 22:17:57 10° N
ARIANE 5 R/B 3.7 22:17:17 41° NW 22:17:17 41° NW 22:20:36 10° NNW
CZ-4C R/B 4.0 22:20:29 10° WNW 22:26:54 31° WSW 22:27:43 31° SW
Cosmos 2227 4.3 22:22:28 10° NNW 22:27:45 76° NNW 22:27:45 76° NNW
Cosmos 2369 4.0 22:27:49 57° WNW 22:28:16 58° WNW 22:33:52 10° NNE
Lacrosse 4 Rocket 3.5 22:33:41 21° NNE 22:33:41 21° NNE 22:35:04 10° NNE
NOSS 3-2 (C) 4.0 22:25:28 10° NW 22:32:51 85° NE 22:34:31 62° SE
H-2A R/B 4.1 22:29:12 10° NNE 22:30:48 20° NE 22:30:48 20° NE
ALOS 2 3.8 22:35:57 41° N 22:35:57 41° N 22:38:52 10° NNW
Cosmos 2233 Rocket 4.1 22:29:10 10° NNW 22:35:15 63° W 22:35:19 63° W
Cosmos 2061 Rocket 4.4 22:35:28 10° NNW 22:41:41 52° W 22:42:00 51° WSW
Cosmos 1447 Rocket 4.4 22:42:34 85° NNW 22:42:34 85° NNW 22:48:36 10° N
Cosmos 1814 Rocket 4.5 22:45:04 58° N 22:45:04 58° N 22:49:17 10° NNE
Cosmos 1464 Rocket 4.3 22:38:34 10° N 22:44:51 56° ENE 22:44:59 56° E
Cosmos 2263 Rocket 3.7 22:44:03 10° NW 22:47:47 26° W 22:47:47 26° W
Cosmos 2360 Rocket 3.5 22:51:06 30° ENE 22:51:06 30° ENE 22:54:33 10° NE
USA 267 4.2 22:44:58 10° E 22:51:09 46° NNE 22:57:19 10° WNW
SL-19 R/B 4.4 22:46:18 10° NNE 22:51:47 75° NW 22:51:47 75° NW
Cosmos 909 Rocket 4.4 22:55:34 71° S 22:56:26 80° ESE 23:05:40 10° NE
Cosmos 1891 Rocket 4.4 22:53:17 10° N 22:59:18 84° NW 22:59:18 84° NW
Cosmos 1513 Rocket 4.4 22:53:48 10° N 22:59:38 82° N 22:59:38 82° N
Cosmos 2333 Rocket 3.3 23:03:47 33° ENE 23:03:47 33° ENE 23:07:28 10° NE
Cosmos 2322 Rocket 2.9 23:03:59 46° ENE 23:03:59 46° ENE 23:08:09 10° NE
Lacrosse 5 3.6 23:05:57 24° ENE 23:05:57 24° ENE 23:07:59 10° ENE
Cosmos 2219 Rocket 3.9 23:05:42 22° ENE 23:05:42 22° ENE 23:08:39 10° NE
Cosmos 2034 Rocket 4.3 23:00:54 10° N 23:06:59 56° ENE 23:07:00 56° ENE
Cosmos 1809 Rocket 4.5 23:21:05 75° WNW 23:21:05 75° WNW 23:27:06 10° N
SL-16 R/B 2.4 23:22:57 65° NNW 23:22:57 65° NNW 23:28:10 10° NNE
Cosmos 1844 4.1 23:18:47 10° NNW 23:23:28 57° NW 23:23:28 57° NW
CENTAUR R/B 4.4 23:25:29 10° WNW 23:31:56 26° WSW 23:31:56 26° WSW
USA 238 DEB 3.8 23:25:15 10° NW 23:32:35 77° SW 23:32:58 75° SSW
USA 238 3.8 23:25:20 10° NW 23:32:41 77° SW 23:33:06 75° SSW
Cosmos 1844 Rocket 3.5 23:28:11 10° NW 23:32:08 42° WNW 23:32:08 42° WNW
Resurs 1-4 Rocket 4.5 23:38:08 10° ENE 23:39:50 11° E 23:40:30 11° E
Cosmos 1980 Rocket 4.4 23:36:55 11° W 23:40:31 19° NW 23:44:29 10° N
Meteor 2-2 Rocket 4.3 23:48:58 78° NE 23:48:58 78° NE 23:54:32 10° NNE
Timation 2 Rocket 4.2 23:42:30 10° NW 23:48:19 60° W 23:48:19 60° W
Cosmos 1816 Rocket 4.4 23:51:35 76° WNW 23:51:35 76° WNW 23:57:34 10° N
